Index of /20260417/WXO-DD/model_rdps/10km/00/069
Name Last modified Size Description
Parent Directory -
20260417T00Z_MSC_RDPS_AbsoluteVorticity_IsbL-0250_RLatLon0.09_PT069H.grib2 2026-04-17 02:59 606K
20260417T00Z_MSC_RDPS_AbsoluteVorticity_IsbL-0500_RLatLon0.09_PT069H.grib2 2026-04-17 02:59 565K
20260417T00Z_MSC_RDPS_AbsoluteVorticity_IsbL-0700_RLatLon0.09_PT069H.grib2 2026-04-17 02:59 625K
20260417T00Z_MSC_RDPS_AbsoluteVorticity_IsbL-0850_RLatLon0.09_PT069H.grib2 2026-04-17 02:59 788K
20260417T00Z_MSC_RDPS_AirTemp_AGL-120m_RLatLon0.09_PT069H.grib2 2026-04-17 02:59 380K
20260417T00Z_MSC_RDPS_AirTemp_AGL-2m_RLatLon0.09_PT069H.grib2 2026-04-17 02:59 630K
20260417T00Z_MSC_RDPS_AirTemp_AGL-40m_RLatLon0.09_PT069H.grib2 2026-04-17 02:59 405K
20260417T00Z_MSC_RDPS_AirTemp_AGL-80m_RLatLon0.09_PT069H.grib2 2026-04-17 02:59 384K
20260417T00Z_MSC_RDPS_AirTemp_IsbL-0001_RLatLon0.09_PT069H.grib2 2026-04-17 02:59 316K
20260417T00Z_MSC_RDPS_AirTemp_IsbL-0005_RLatLon0.09_PT069H.grib2 2026-04-17 02:59 337K
20260417T00Z_MSC_RDPS_AirTemp_IsbL-0010_RLatLon0.09_PT069H.grib2 2026-04-17 02:59 311K
20260417T00Z_MSC_RDPS_AirTemp_IsbL-0020_RLatLon0.09_PT069H.grib2 2026-04-17 02:59 329K
20260417T00Z_MSC_RDPS_AirTemp_IsbL-0030_RLatLon0.09_PT069H.grib2 2026-04-17 02:59 383K
20260417T00Z_MSC_RDPS_AirTemp_IsbL-0050_RLatLon0.09_PT069H.grib2 2026-04-17 02:59 329K
20260417T00Z_MSC_RDPS_AirTemp_IsbL-0100_RLatLon0.09_PT069H.grib2 2026-04-17 02:59 425K
20260417T00Z_MSC_RDPS_AirTemp_IsbL-0150_RLatLon0.09_PT069H.grib2 2026-04-17 02:59 425K
20260417T00Z_MSC_RDPS_AirTemp_IsbL-0175_RLatLon0.09_PT069H.grib2 2026-04-17 02:59 421K
20260417T00Z_MSC_RDPS_AirTemp_IsbL-0200_RLatLon0.09_PT069H.grib2 2026-04-17 02:59 423K
20260417T00Z_MSC_RDPS_AirTemp_IsbL-0225_RLatLon0.09_PT069H.grib2 2026-04-17 02:59 424K
20260417T00Z_MSC_RDPS_AirTemp_IsbL-0250_RLatLon0.09_PT069H.grib2 2026-04-17 02:59 430K
20260417T00Z_MSC_RDPS_AirTemp_IsbL-0275_RLatLon0.09_PT069H.grib2 2026-04-17 02:59 406K
20260417T00Z_MSC_RDPS_AirTemp_IsbL-0300_RLatLon0.09_PT069H.grib2 2026-04-17 02:59 409K
20260417T00Z_MSC_RDPS_AirTemp_IsbL-0350_RLatLon0.09_PT069H.grib2 2026-04-17 02:59 421K
20260417T00Z_MSC_RDPS_AirTemp_IsbL-0400_RLatLon0.09_PT069H.grib2 2026-04-17 02:59 389K
20260417T00Z_MSC_RDPS_AirTemp_IsbL-0450_RLatLon0.09_PT069H.grib2 2026-04-17 02:59 399K
20260417T00Z_MSC_RDPS_AirTemp_IsbL-0500_RLatLon0.09_PT069H.grib2 2026-04-17 02:59 412K
20260417T00Z_MSC_RDPS_AirTemp_IsbL-0550_RLatLon0.09_PT069H.grib2 2026-04-17 02:59 433K
20260417T00Z_MSC_RDPS_AirTemp_IsbL-0600_RLatLon0.09_PT069H.grib2 2026-04-17 02:59 456K
20260417T00Z_MSC_RDPS_AirTemp_IsbL-0650_RLatLon0.09_PT069H.grib2 2026-04-17 02:59 472K
20260417T00Z_MSC_RDPS_AirTemp_IsbL-0700_RLatLon0.09_PT069H.grib2 2026-04-17 02:59 501K
20260417T00Z_MSC_RDPS_AirTemp_IsbL-0750_RLatLon0.09_PT069H.grib2 2026-04-17 02:59 543K
20260417T00Z_MSC_RDPS_AirTemp_IsbL-0800_RLatLon0.09_PT069H.grib2 2026-04-17 02:59 471K
20260417T00Z_MSC_RDPS_AirTemp_IsbL-0850_RLatLon0.09_PT069H.grib2 2026-04-17 02:59 511K
20260417T00Z_MSC_RDPS_AirTemp_IsbL-0875_RLatLon0.09_PT069H.grib2 2026-04-17 02:59 527K
20260417T00Z_MSC_RDPS_AirTemp_IsbL-0900_RLatLon0.09_PT069H.grib2 2026-04-17 02:59 539K
20260417T00Z_MSC_RDPS_AirTemp_IsbL-0925_RLatLon0.09_PT069H.grib2 2026-04-17 02:59 524K
20260417T00Z_MSC_RDPS_AirTemp_IsbL-0950_RLatLon0.09_PT069H.grib2 2026-04-17 02:59 521K
20260417T00Z_MSC_RDPS_AirTemp_IsbL-0970_RLatLon0.09_PT069H.grib2 2026-04-17 02:59 530K
20260417T00Z_MSC_RDPS_AirTemp_IsbL-0985_RLatLon0.09_PT069H.grib2 2026-04-17 02:59 522K
20260417T00Z_MSC_RDPS_AirTemp_IsbL-1000_RLatLon0.09_PT069H.grib2 2026-04-17 02:59 514K
20260417T00Z_MSC_RDPS_AirTemp_IsbL-1015_RLatLon0.09_PT069H.grib2 2026-04-17 02:59 512K
20260417T00Z_MSC_RDPS_Albedo_Sfc_RLatLon0.09_PT069H.grib2 2026-04-17 02:59 167K
20260417T00Z_MSC_RDPS_CAPE_Sfc_RLatLon0.09_PT069H.grib2 2026-04-17 02:59 1.7M
20260417T00Z_MSC_RDPS_CIN_Sfc_RLatLon0.09_PT069H.grib2 2026-04-17 02:59 1.1M
20260417T00Z_MSC_RDPS_CloudWater_EAtm_RLatLon0.09_PT069H.grib2 2026-04-17 02:59 217K
20260417T00Z_MSC_RDPS_ConvectivePrecip-Accum_Sfc_RLatLon0.09_PT069H.grib2 2026-04-17 02:59 1.3M
20260417T00Z_MSC_RDPS_DewPointDepression_AGL-2m_RLatLon0.09_PT069H.grib2 2026-04-17 02:59 418K
20260417T00Z_MSC_RDPS_DewPointDepression_IsbL-0001_RLatLon0.09_PT069H.grib2 2026-04-17 02:59 193
20260417T00Z_MSC_RDPS_DewPointDepression_IsbL-0005_RLatLon0.09_PT069H.grib2 2026-04-17 02:59 193
20260417T00Z_MSC_RDPS_DewPointDepression_IsbL-0010_RLatLon0.09_PT069H.grib2 2026-04-17 02:59 193
20260417T00Z_MSC_RDPS_DewPointDepression_IsbL-0020_RLatLon0.09_PT069H.grib2 2026-04-17 02:59 193
20260417T00Z_MSC_RDPS_DewPointDepression_IsbL-0030_RLatLon0.09_PT069H.grib2 2026-04-17 02:59 193
20260417T00Z_MSC_RDPS_DewPointDepression_IsbL-0050_RLatLon0.09_PT069H.grib2 2026-04-17 02:59 118K
20260417T00Z_MSC_RDPS_DewPointDepression_IsbL-0100_RLatLon0.09_PT069H.grib2 2026-04-17 02:59 123K
20260417T00Z_MSC_RDPS_DewPointDepression_IsbL-0150_RLatLon0.09_PT069H.grib2 2026-04-17 02:59 151K
20260417T00Z_MSC_RDPS_DewPointDepression_IsbL-0175_RLatLon0.09_PT069H.grib2 2026-04-17 02:59 183K
20260417T00Z_MSC_RDPS_DewPointDepression_IsbL-0200_RLatLon0.09_PT069H.grib2 2026-04-17 02:59 219K
20260417T00Z_MSC_RDPS_DewPointDepression_IsbL-0225_RLatLon0.09_PT069H.grib2 2026-04-17 02:59 258K
20260417T00Z_MSC_RDPS_DewPointDepression_IsbL-0250_RLatLon0.09_PT069H.grib2 2026-04-17 02:59 293K
20260417T00Z_MSC_RDPS_DewPointDepression_IsbL-0275_RLatLon0.09_PT069H.grib2 2026-04-17 02:59 304K
20260417T00Z_MSC_RDPS_DewPointDepression_IsbL-0300_RLatLon0.09_PT069H.grib2 2026-04-17 02:59 322K
20260417T00Z_MSC_RDPS_DewPointDepression_IsbL-0350_RLatLon0.09_PT069H.grib2 2026-04-17 02:59 331K
20260417T00Z_MSC_RDPS_DewPointDepression_IsbL-0400_RLatLon0.09_PT069H.grib2 2026-04-17 02:59 348K
20260417T00Z_MSC_RDPS_DewPointDepression_IsbL-0450_RLatLon0.09_PT069H.grib2 2026-04-17 02:59 363K
20260417T00Z_MSC_RDPS_DewPointDepression_IsbL-0500_RLatLon0.09_PT069H.grib2 2026-04-17 02:59 371K
20260417T00Z_MSC_RDPS_DewPointDepression_IsbL-0550_RLatLon0.09_PT069H.grib2 2026-04-17 02:59 385K
20260417T00Z_MSC_RDPS_DewPointDepression_IsbL-0600_RLatLon0.09_PT069H.grib2 2026-04-17 02:59 397K
20260417T00Z_MSC_RDPS_DewPointDepression_IsbL-0650_RLatLon0.09_PT069H.grib2 2026-04-17 02:59 403K
20260417T00Z_MSC_RDPS_DewPointDepression_IsbL-0700_RLatLon0.09_PT069H.grib2 2026-04-17 02:59 412K
20260417T00Z_MSC_RDPS_DewPointDepression_IsbL-0750_RLatLon0.09_PT069H.grib2 2026-04-17 02:59 436K
20260417T00Z_MSC_RDPS_DewPointDepression_IsbL-0800_RLatLon0.09_PT069H.grib2 2026-04-17 02:59 465K
20260417T00Z_MSC_RDPS_DewPointDepression_IsbL-0850_RLatLon0.09_PT069H.grib2 2026-04-17 02:59 477K
20260417T00Z_MSC_RDPS_DewPointDepression_IsbL-0875_RLatLon0.09_PT069H.grib2 2026-04-17 02:59 475K
20260417T00Z_MSC_RDPS_DewPointDepression_IsbL-0900_RLatLon0.09_PT069H.grib2 2026-04-17 02:59 465K
20260417T00Z_MSC_RDPS_DewPointDepression_IsbL-0925_RLatLon0.09_PT069H.grib2 2026-04-17 02:59 453K
20260417T00Z_MSC_RDPS_DewPointDepression_IsbL-0950_RLatLon0.09_PT069H.grib2 2026-04-17 02:59 447K
20260417T00Z_MSC_RDPS_DewPointDepression_IsbL-0970_RLatLon0.09_PT069H.grib2 2026-04-17 02:59 441K
20260417T00Z_MSC_RDPS_DewPointDepression_IsbL-0985_RLatLon0.09_PT069H.grib2 2026-04-17 02:59 436K
20260417T00Z_MSC_RDPS_DewPointDepression_IsbL-1000_RLatLon0.09_PT069H.grib2 2026-04-17 02:59 432K
20260417T00Z_MSC_RDPS_DewPointDepression_IsbL-1015_RLatLon0.09_PT069H.grib2 2026-04-17 02:59 421K
20260417T00Z_MSC_RDPS_DewPoint_AGL-2m_RLatLon0.09_PT069H.grib2 2026-04-17 02:59 405K
20260417T00Z_MSC_RDPS_DownwardLongwaveRadiationFlux-Accum_Sfc_RLatLon0.09_PT069H.grib2 2026-04-17 02:59 416K
20260417T00Z_MSC_RDPS_DownwardShortwaveRadiationFlux-Accum_NTAtm_RLatLon0.09_PT069H.grib2 2026-04-17 02:59 103K
20260417T00Z_MSC_RDPS_DownwardShortwaveRadiationFlux-Accum_Sfc_RLatLon0.09_PT069H.grib2 2026-04-17 02:59 598K
20260417T00Z_MSC_RDPS_FreezingRain-Accum1h_Sfc_RLatLon0.09_PT069H.grib2 2026-04-17 02:59 18K
20260417T00Z_MSC_RDPS_FreezingRain-Accum3h_Sfc_RLatLon0.09_PT069H.grib2 2026-04-17 02:59 16K
20260417T00Z_MSC_RDPS_FreezingRain-Accum_Sfc_RLatLon0.09_PT069H.grib2 2026-04-17 02:59 186K
20260417T00Z_MSC_RDPS_GeopotentialHeight_IsbL-0001_RLatLon0.09_PT069H.grib2 2026-04-17 02:59 210K
20260417T00Z_MSC_RDPS_GeopotentialHeight_IsbL-0005_RLatLon0.09_PT069H.grib2 2026-04-17 02:59 241K
20260417T00Z_MSC_RDPS_GeopotentialHeight_IsbL-0010_RLatLon0.09_PT069H.grib2 2026-04-17 02:59 316K
20260417T00Z_MSC_RDPS_GeopotentialHeight_IsbL-0020_RLatLon0.09_PT069H.grib2 2026-04-17 02:59 312K
20260417T00Z_MSC_RDPS_GeopotentialHeight_IsbL-0030_RLatLon0.09_PT069H.grib2 2026-04-17 02:59 314K
20260417T00Z_MSC_RDPS_GeopotentialHeight_IsbL-0050_RLatLon0.09_PT069H.grib2 2026-04-17 02:59 317K
20260417T00Z_MSC_RDPS_GeopotentialHeight_IsbL-0100_RLatLon0.09_PT069H.grib2 2026-04-17 02:59 290K
20260417T00Z_MSC_RDPS_GeopotentialHeight_IsbL-0150_RLatLon0.09_PT069H.grib2 2026-04-17 02:59 262K
20260417T00Z_MSC_RDPS_GeopotentialHeight_IsbL-0175_RLatLon0.09_PT069H.grib2 2026-04-17 02:59 265K
20260417T00Z_MSC_RDPS_GeopotentialHeight_IsbL-0200_RLatLon0.09_PT069H.grib2 2026-04-17 02:59 267K
20260417T00Z_MSC_RDPS_GeopotentialHeight_IsbL-0225_RLatLon0.09_PT069H.grib2 2026-04-17 02:59 269K
20260417T00Z_MSC_RDPS_GeopotentialHeight_IsbL-0250_RLatLon0.09_PT069H.grib2 2026-04-17 02:59 269K
20260417T00Z_MSC_RDPS_GeopotentialHeight_IsbL-0275_RLatLon0.09_PT069H.grib2 2026-04-17 02:59 268K
20260417T00Z_MSC_RDPS_GeopotentialHeight_IsbL-0300_RLatLon0.09_PT069H.grib2 2026-04-17 02:59 268K
20260417T00Z_MSC_RDPS_GeopotentialHeight_IsbL-0350_RLatLon0.09_PT069H.grib2 2026-04-17 02:59 235K
20260417T00Z_MSC_RDPS_GeopotentialHeight_IsbL-0400_RLatLon0.09_PT069H.grib2 2026-04-17 02:59 231K
20260417T00Z_MSC_RDPS_GeopotentialHeight_IsbL-0450_RLatLon0.09_PT069H.grib2 2026-04-17 02:59 301K
20260417T00Z_MSC_RDPS_GeopotentialHeight_IsbL-0500_RLatLon0.09_PT069H.grib2 2026-04-17 02:59 297K
20260417T00Z_MSC_RDPS_GeopotentialHeight_IsbL-0550_RLatLon0.09_PT069H.grib2 2026-04-17 02:59 294K
20260417T00Z_MSC_RDPS_GeopotentialHeight_IsbL-0600_RLatLon0.09_PT069H.grib2 2026-04-17 02:59 290K
20260417T00Z_MSC_RDPS_GeopotentialHeight_IsbL-0650_RLatLon0.09_PT069H.grib2 2026-04-17 02:59 264K
20260417T00Z_MSC_RDPS_GeopotentialHeight_IsbL-0700_RLatLon0.09_PT069H.grib2 2026-04-17 02:59 264K
20260417T00Z_MSC_RDPS_GeopotentialHeight_IsbL-0750_RLatLon0.09_PT069H.grib2 2026-04-17 02:59 267K
20260417T00Z_MSC_RDPS_GeopotentialHeight_IsbL-0800_RLatLon0.09_PT069H.grib2 2026-04-17 02:59 272K
20260417T00Z_MSC_RDPS_GeopotentialHeight_IsbL-0850_RLatLon0.09_PT069H.grib2 2026-04-17 02:59 364K
20260417T00Z_MSC_RDPS_GeopotentialHeight_IsbL-0875_RLatLon0.09_PT069H.grib2 2026-04-17 02:59 367K
20260417T00Z_MSC_RDPS_GeopotentialHeight_IsbL-0900_RLatLon0.09_PT069H.grib2 2026-04-17 02:59 371K
20260417T00Z_MSC_RDPS_GeopotentialHeight_IsbL-0925_RLatLon0.09_PT069H.grib2 2026-04-17 02:59 371K
20260417T00Z_MSC_RDPS_GeopotentialHeight_IsbL-0950_RLatLon0.09_PT069H.grib2 2026-04-17 02:59 376K
20260417T00Z_MSC_RDPS_GeopotentialHeight_IsbL-0970_RLatLon0.09_PT069H.grib2 2026-04-17 02:59 382K
20260417T00Z_MSC_RDPS_GeopotentialHeight_IsbL-0985_RLatLon0.09_PT069H.grib2 2026-04-17 02:59 391K
20260417T00Z_MSC_RDPS_GeopotentialHeight_IsbL-1000_RLatLon0.09_PT069H.grib2 2026-04-17 02:59 404K
20260417T00Z_MSC_RDPS_GeopotentialHeight_IsbL-1015_RLatLon0.09_PT069H.grib2 2026-04-17 02:59 419K
20260417T00Z_MSC_RDPS_Humidex_Sfc_RLatLon0.09_PT069H.grib2 2026-04-17 02:59 2.4M
20260417T00Z_MSC_RDPS_IcePellets-Accum1h_Sfc_RLatLon0.09_PT069H.grib2 2026-04-17 02:59 6.6K
20260417T00Z_MSC_RDPS_IcePellets-Accum3h_Sfc_RLatLon0.09_PT069H.grib2 2026-04-17 02:59 8.6K
20260417T00Z_MSC_RDPS_IcePellets-Accum_Sfc_RLatLon0.09_PT069H.grib2 2026-04-17 02:59 76K
20260417T00Z_MSC_RDPS_KIndex_Sfc_RLatLon0.09_PT069H.grib2 2026-04-17 02:59 2.5M
20260417T00Z_MSC_RDPS_LatentHeatNetFlux_Sfc_RLatLon0.09_PT069H.grib2 2026-04-17 02:59 296K
20260417T00Z_MSC_RDPS_LiftedIndex-MU-VT_IsbL-0500_RLatLon0.09_PT069H.grib2 2026-04-17 02:59 2.4M
20260417T00Z_MSC_RDPS_NetLongwaveRadiationFlux-Accum_Sfc_RLatLon0.09_PT069H.grib2 2026-04-17 02:59 459K
20260417T00Z_MSC_RDPS_NetShortwaveRadiationFlux-Accum_Sfc_RLatLon0.09_PT069H.grib2 2026-04-17 02:59 609K
20260417T00Z_MSC_RDPS_PlanetaryBoundaryLayerHeight_Sfc_RLatLon0.09_PT069H.grib2 2026-04-17 02:59 1.0M
20260417T00Z_MSC_RDPS_Precip-Accum1h_Sfc_RLatLon0.09_PT069H.grib2 2026-04-17 02:59 1.2M
20260417T00Z_MSC_RDPS_Precip-Accum3h_Sfc_RLatLon0.09_PT069H.grib2 2026-04-17 02:59 1.3M
20260417T00Z_MSC_RDPS_Precip-Accum_Sfc_RLatLon0.09_PT069H.grib2 2026-04-17 02:59 2.2M
20260417T00Z_MSC_RDPS_PrecipRate_Sfc_RLatLon0.09_PT069H.grib2 2026-04-17 02:59 191K
20260417T00Z_MSC_RDPS_PrecipType-Instant_Sfc_RLatLon0.09_PT069H.grib2 2026-04-17 02:59 594K
20260417T00Z_MSC_RDPS_Pressure-Trend3h_Sfc_RLatLon0.09_PT069H.grib2 2026-04-17 02:59 1.2M
20260417T00Z_MSC_RDPS_Pressure_MSL_RLatLon0.09_PT069H.grib2 2026-04-17 02:59 302K
20260417T00Z_MSC_RDPS_Pressure_PVU-1.5_RLatLon0.09_PT069H.grib2 2026-04-17 02:59 2.3M
20260417T00Z_MSC_RDPS_Pressure_PVU-1_RLatLon0.09_PT069H.grib2 2026-04-17 02:59 2.4M
20260417T00Z_MSC_RDPS_Pressure_PVU-2_RLatLon0.09_PT069H.grib2 2026-04-17 02:59 2.4M
20260417T00Z_MSC_RDPS_Pressure_Sfc_RLatLon0.09_PT069H.grib2 2026-04-17 02:59 500K
20260417T00Z_MSC_RDPS_RadiativeTemp_Sfc_RLatLon0.09_PT069H.grib2 2026-04-17 02:59 326K
20260417T00Z_MSC_RDPS_Rain-Accum1h_Sfc_RLatLon0.09_PT069H.grib2 2026-04-17 02:59 586K
20260417T00Z_MSC_RDPS_Rain-Accum3h_Sfc_RLatLon0.09_PT069H.grib2 2026-04-17 02:59 673K
20260417T00Z_MSC_RDPS_Rain-Accum_Sfc_RLatLon0.09_PT069H.grib2 2026-04-17 02:59 1.7M
20260417T00Z_MSC_RDPS_RelativeHumidity_AGL-2m_RLatLon0.09_PT069H.grib2 2026-04-17 02:59 1.0M
20260417T00Z_MSC_RDPS_RelativeHumidity_IsbL-0010_RLatLon0.09_PT069H.grib2 2026-04-17 02:59 632K
20260417T00Z_MSC_RDPS_RelativeHumidity_IsbL-0020_RLatLon0.09_PT069H.grib2 2026-04-17 02:59 534K
20260417T00Z_MSC_RDPS_RelativeHumidity_IsbL-0030_RLatLon0.09_PT069H.grib2 2026-04-17 02:59 550K
20260417T00Z_MSC_RDPS_RelativeHumidity_IsbL-0050_RLatLon0.09_PT069H.grib2 2026-04-17 02:59 290K
20260417T00Z_MSC_RDPS_RelativeHumidity_IsbL-0100_RLatLon0.09_PT069H.grib2 2026-04-17 02:59 259K
20260417T00Z_MSC_RDPS_RelativeHumidity_IsbL-0150_RLatLon0.09_PT069H.grib2 2026-04-17 02:59 385K
20260417T00Z_MSC_RDPS_RelativeHumidity_IsbL-0175_RLatLon0.09_PT069H.grib2 2026-04-17 02:59 477K
20260417T00Z_MSC_RDPS_RelativeHumidity_IsbL-0200_RLatLon0.09_PT069H.grib2 2026-04-17 02:59 558K
20260417T00Z_MSC_RDPS_RelativeHumidity_IsbL-0225_RLatLon0.09_PT069H.grib2 2026-04-17 02:59 624K
20260417T00Z_MSC_RDPS_RelativeHumidity_IsbL-0250_RLatLon0.09_PT069H.grib2 2026-04-17 02:59 688K
20260417T00Z_MSC_RDPS_RelativeHumidity_IsbL-0275_RLatLon0.09_PT069H.grib2 2026-04-17 02:59 706K
20260417T00Z_MSC_RDPS_RelativeHumidity_IsbL-0300_RLatLon0.09_PT069H.grib2 2026-04-17 02:59 744K
20260417T00Z_MSC_RDPS_RelativeHumidity_IsbL-0350_RLatLon0.09_PT069H.grib2 2026-04-17 02:59 763K
20260417T00Z_MSC_RDPS_RelativeHumidity_IsbL-0400_RLatLon0.09_PT069H.grib2 2026-04-17 02:59 786K
20260417T00Z_MSC_RDPS_RelativeHumidity_IsbL-0450_RLatLon0.09_PT069H.grib2 2026-04-17 02:59 805K
20260417T00Z_MSC_RDPS_RelativeHumidity_IsbL-0500_RLatLon0.09_PT069H.grib2 2026-04-17 02:59 813K
20260417T00Z_MSC_RDPS_RelativeHumidity_IsbL-0550_RLatLon0.09_PT069H.grib2 2026-04-17 02:59 842K
20260417T00Z_MSC_RDPS_RelativeHumidity_IsbL-0600_RLatLon0.09_PT069H.grib2 2026-04-17 02:59 856K
20260417T00Z_MSC_RDPS_RelativeHumidity_IsbL-0650_RLatLon0.09_PT069H.grib2 2026-04-17 02:59 867K
20260417T00Z_MSC_RDPS_RelativeHumidity_IsbL-0700_RLatLon0.09_PT069H.grib2 2026-04-17 02:59 898K
20260417T00Z_MSC_RDPS_RelativeHumidity_IsbL-0750_RLatLon0.09_PT069H.grib2 2026-04-17 02:59 945K
20260417T00Z_MSC_RDPS_RelativeHumidity_IsbL-0800_RLatLon0.09_PT069H.grib2 2026-04-17 02:59 1.0M
20260417T00Z_MSC_RDPS_RelativeHumidity_IsbL-0850_RLatLon0.09_PT069H.grib2 2026-04-17 02:59 1.0M
20260417T00Z_MSC_RDPS_RelativeHumidity_IsbL-0875_RLatLon0.09_PT069H.grib2 2026-04-17 02:59 1.1M
20260417T00Z_MSC_RDPS_RelativeHumidity_IsbL-0900_RLatLon0.09_PT069H.grib2 2026-04-17 02:59 1.1M
20260417T00Z_MSC_RDPS_RelativeHumidity_IsbL-0925_RLatLon0.09_PT069H.grib2 2026-04-17 02:59 1.1M
20260417T00Z_MSC_RDPS_RelativeHumidity_IsbL-0950_RLatLon0.09_PT069H.grib2 2026-04-17 02:59 1.1M
20260417T00Z_MSC_RDPS_RelativeHumidity_IsbL-0970_RLatLon0.09_PT069H.grib2 2026-04-17 02:59 1.1M
20260417T00Z_MSC_RDPS_RelativeHumidity_IsbL-0985_RLatLon0.09_PT069H.grib2 2026-04-17 02:59 1.0M
20260417T00Z_MSC_RDPS_RelativeHumidity_IsbL-1000_RLatLon0.09_PT069H.grib2 2026-04-17 02:59 1.0M
20260417T00Z_MSC_RDPS_RelativeHumidity_IsbL-1015_RLatLon0.09_PT069H.grib2 2026-04-17 02:59 1.0M
20260417T00Z_MSC_RDPS_Runoff-Accum_Sfc_RLatLon0.09_PT069H.grib2 2026-04-17 02:59 67K
20260417T00Z_MSC_RDPS_SWEATIndex_Sfc_RLatLon0.09_PT069H.grib2 2026-04-17 02:59 2.4M
20260417T00Z_MSC_RDPS_SeeingIndex_EAtm_RLatLon0.09_PT069H.grib2 2026-04-17 02:59 1.0M
20260417T00Z_MSC_RDPS_SensibleHeatNetFlux_Sfc_RLatLon0.09_PT069H.grib2 2026-04-17 02:59 360K
20260417T00Z_MSC_RDPS_ShowalterIndex_IsbL-0500_RLatLon0.09_PT069H.grib2 2026-04-17 02:59 2.6M
20260417T00Z_MSC_RDPS_SkyTransparencyIndex_EAtm_RLatLon0.09_PT069H.grib2 2026-04-17 02:59 758K
20260417T00Z_MSC_RDPS_Snow-Accum1h_Sfc_RLatLon0.09_PT069H.grib2 2026-04-17 02:59 531K
20260417T00Z_MSC_RDPS_Snow-Accum3h_Sfc_RLatLon0.09_PT069H.grib2 2026-04-17 02:59 466K
20260417T00Z_MSC_RDPS_Snow-Accum_Sfc_RLatLon0.09_PT069H.grib2 2026-04-17 02:59 862K
20260417T00Z_MSC_RDPS_SnowDensity_Sfc_RLatLon0.09_PT069H.grib2 2026-04-17 02:59 183K
20260417T00Z_MSC_RDPS_SnowDepth_Sfc_RLatLon0.09_PT069H.grib2 2026-04-17 02:59 732K
20260417T00Z_MSC_RDPS_SoilTemp_DBS-0to10cm_RLatLon0.09_PT069H.grib2 2026-04-17 02:59 240K
20260417T00Z_MSC_RDPS_SoilTemp_Sfc_RLatLon0.09_PT069H.grib2 2026-04-17 02:59 283K
20260417T00Z_MSC_RDPS_SoilVolumetricIceContent_Sfc_RLatLon0.09_PT069H.grib2 2026-04-17 02:59 175K
20260417T00Z_MSC_RDPS_SoilVolumetricWaterContent_DBS-0to10cm_RLatLon0.09_PT069H.grib2 2026-04-17 02:59 248K
20260417T00Z_MSC_RDPS_SoilVolumetricWaterContent_DBS-0to1cm_RLatLon0.09_PT069H.grib2 2026-04-17 02:59 338K
20260417T00Z_MSC_RDPS_SpecificHumidity_AGL-120m_RLatLon0.09_PT069H.grib2 2026-04-17 02:59 484K
20260417T00Z_MSC_RDPS_SpecificHumidity_AGL-2m_RLatLon0.09_PT069H.grib2 2026-04-17 02:59 650K
20260417T00Z_MSC_RDPS_SpecificHumidity_AGL-40m_RLatLon0.09_PT069H.grib2 2026-04-17 02:59 488K
20260417T00Z_MSC_RDPS_SpecificHumidity_AGL-80m_RLatLon0.09_PT069H.grib2 2026-04-17 02:59 485K
20260417T00Z_MSC_RDPS_SpecificHumidity_IsbL-0001_RLatLon0.09_PT069H.grib2 2026-04-17 02:59 316K
20260417T00Z_MSC_RDPS_SpecificHumidity_IsbL-0005_RLatLon0.09_PT069H.grib2 2026-04-17 02:59 333K
20260417T00Z_MSC_RDPS_SpecificHumidity_IsbL-0010_RLatLon0.09_PT069H.grib2 2026-04-17 02:59 369K
20260417T00Z_MSC_RDPS_SpecificHumidity_IsbL-0020_RLatLon0.09_PT069H.grib2 2026-04-17 02:59 362K
20260417T00Z_MSC_RDPS_SpecificHumidity_IsbL-0030_RLatLon0.09_PT069H.grib2 2026-04-17 02:59 422K
20260417T00Z_MSC_RDPS_SpecificHumidity_IsbL-0050_RLatLon0.09_PT069H.grib2 2026-04-17 02:59 487K
20260417T00Z_MSC_RDPS_SpecificHumidity_IsbL-0100_RLatLon0.09_PT069H.grib2 2026-04-17 02:59 391K
20260417T00Z_MSC_RDPS_SpecificHumidity_IsbL-0150_RLatLon0.09_PT069H.grib2 2026-04-17 02:59 438K
20260417T00Z_MSC_RDPS_SpecificHumidity_IsbL-0175_RLatLon0.09_PT069H.grib2 2026-04-17 02:59 429K
20260417T00Z_MSC_RDPS_SpecificHumidity_IsbL-0200_RLatLon0.09_PT069H.grib2 2026-04-17 02:59 447K
20260417T00Z_MSC_RDPS_SpecificHumidity_IsbL-0225_RLatLon0.09_PT069H.grib2 2026-04-17 02:59 451K
20260417T00Z_MSC_RDPS_SpecificHumidity_IsbL-0250_RLatLon0.09_PT069H.grib2 2026-04-17 02:59 551K
20260417T00Z_MSC_RDPS_SpecificHumidity_IsbL-0275_RLatLon0.09_PT069H.grib2 2026-04-17 02:59 466K
20260417T00Z_MSC_RDPS_SpecificHumidity_IsbL-0300_RLatLon0.09_PT069H.grib2 2026-04-17 02:59 437K
20260417T00Z_MSC_RDPS_SpecificHumidity_IsbL-0350_RLatLon0.09_PT069H.grib2 2026-04-17 02:59 525K
20260417T00Z_MSC_RDPS_SpecificHumidity_IsbL-0400_RLatLon0.09_PT069H.grib2 2026-04-17 02:59 513K
20260417T00Z_MSC_RDPS_SpecificHumidity_IsbL-0450_RLatLon0.09_PT069H.grib2 2026-04-17 02:59 575K
20260417T00Z_MSC_RDPS_SpecificHumidity_IsbL-0500_RLatLon0.09_PT069H.grib2 2026-04-17 02:59 513K
20260417T00Z_MSC_RDPS_SpecificHumidity_IsbL-0550_RLatLon0.09_PT069H.grib2 2026-04-17 02:59 588K
20260417T00Z_MSC_RDPS_SpecificHumidity_IsbL-0600_RLatLon0.09_PT069H.grib2 2026-04-17 02:59 641K
20260417T00Z_MSC_RDPS_SpecificHumidity_IsbL-0650_RLatLon0.09_PT069H.grib2 2026-04-17 02:59 556K
20260417T00Z_MSC_RDPS_SpecificHumidity_IsbL-0700_RLatLon0.09_PT069H.grib2 2026-04-17 02:59 598K
20260417T00Z_MSC_RDPS_SpecificHumidity_IsbL-0750_RLatLon0.09_PT069H.grib2 2026-04-17 02:59 656K
20260417T00Z_MSC_RDPS_SpecificHumidity_IsbL-0800_RLatLon0.09_PT069H.grib2 2026-04-17 02:59 738K
20260417T00Z_MSC_RDPS_SpecificHumidity_IsbL-0850_RLatLon0.09_PT069H.grib2 2026-04-17 02:59 797K
20260417T00Z_MSC_RDPS_SpecificHumidity_IsbL-0875_RLatLon0.09_PT069H.grib2 2026-04-17 02:59 817K
20260417T00Z_MSC_RDPS_SpecificHumidity_IsbL-0900_RLatLon0.09_PT069H.grib2 2026-04-17 02:59 691K
20260417T00Z_MSC_RDPS_SpecificHumidity_IsbL-0925_RLatLon0.09_PT069H.grib2 2026-04-17 02:59 693K
20260417T00Z_MSC_RDPS_SpecificHumidity_IsbL-0950_RLatLon0.09_PT069H.grib2 2026-04-17 02:59 694K
20260417T00Z_MSC_RDPS_SpecificHumidity_IsbL-0970_RLatLon0.09_PT069H.grib2 2026-04-17 02:59 688K
20260417T00Z_MSC_RDPS_SpecificHumidity_IsbL-0985_RLatLon0.09_PT069H.grib2 2026-04-17 02:59 680K
20260417T00Z_MSC_RDPS_SpecificHumidity_IsbL-1000_RLatLon0.09_PT069H.grib2 2026-04-17 02:59 674K
20260417T00Z_MSC_RDPS_SpecificHumidity_IsbL-1015_RLatLon0.09_PT069H.grib2 2026-04-17 02:59 662K
20260417T00Z_MSC_RDPS_SpecificHumidity_Sfc_RLatLon0.09_PT069H.grib2 2026-04-17 02:59 335K
20260417T00Z_MSC_RDPS_StormRelativeHelicity_EtaL-10000_RLatLon0.09_PT069H.grib2 2026-04-17 02:59 1.2M
20260417T00Z_MSC_RDPS_StormSeverityIndex_EtaL-10000_RLatLon0.09_PT069H.grib2 2026-04-17 02:59 1.2M
20260417T00Z_MSC_RDPS_Thickness_IsbL-0850to0700_RLatLon0.09_PT069H.grib2 2026-04-17 02:59 183K
20260417T00Z_MSC_RDPS_Thickness_IsbL-1000to0500_RLatLon0.09_PT069H.grib2 2026-04-17 02:59 206K
20260417T00Z_MSC_RDPS_Thickness_IsbL-1000to0850_RLatLon0.09_PT069H.grib2 2026-04-17 02:59 191K
20260417T00Z_MSC_RDPS_TotalCloudCover_Sfc_RLatLon0.09_PT069H.grib2 2026-04-17 02:59 658K
20260417T00Z_MSC_RDPS_TotalTotalsIndex_Sfc_RLatLon0.09_PT069H.grib2 2026-04-17 02:59 2.6M
20260417T00Z_MSC_RDPS_UVIndex-ClearSky_Sfc_RLatLon0.09_PT069H.grib2 2026-04-17 02:59 194K
20260417T00Z_MSC_RDPS_UVIndex_Sfc_RLatLon0.09_PT069H.grib2 2026-04-17 02:59 449K
20260417T00Z_MSC_RDPS_UpwardLongwaveRadiationFlux_NTAtm_RLatLon0.09_PT069H.grib2 2026-04-17 02:59 495K
20260417T00Z_MSC_RDPS_UpwardShortwaveRadiationFlux_NTAtm_RLatLon0.09_PT069H.grib2 2026-04-17 02:59 493K
20260417T00Z_MSC_RDPS_VerticalVelocity_IsbL-0250_RLatLon0.09_PT069H.grib2 2026-04-17 02:59 588K
20260417T00Z_MSC_RDPS_VerticalVelocity_IsbL-0500_RLatLon0.09_PT069H.grib2 2026-04-17 02:59 553K
20260417T00Z_MSC_RDPS_VerticalVelocity_IsbL-0700_RLatLon0.09_PT069H.grib2 2026-04-17 02:59 636K
20260417T00Z_MSC_RDPS_VerticalVelocity_IsbL-0850_RLatLon0.09_PT069H.grib2 2026-04-17 02:59 708K
20260417T00Z_MSC_RDPS_VerticalWindShear_EtaL-6500_RLatLon0.09_PT069H.grib2 2026-04-17 02:59 1.2M
20260417T00Z_MSC_RDPS_WindChill_Sfc_RLatLon0.09_PT069H.grib2 2026-04-17 02:59 1.1M
20260417T00Z_MSC_RDPS_WindDir_AGL-10m_RLatLon0.09_PT069H.grib2 2026-04-17 02:59 957K
20260417T00Z_MSC_RDPS_WindDir_AGL-120m_RLatLon0.09_PT069H.grib2 2026-04-17 02:59 599K
20260417T00Z_MSC_RDPS_WindDir_AGL-40m_RLatLon0.09_PT069H.grib2 2026-04-17 02:59 623K
20260417T00Z_MSC_RDPS_WindDir_AGL-80m_RLatLon0.09_PT069H.grib2 2026-04-17 02:59 608K
20260417T00Z_MSC_RDPS_WindDir_IsbL-0001_RLatLon0.09_PT069H.grib2 2026-04-17 02:59 257K
20260417T00Z_MSC_RDPS_WindDir_IsbL-0005_RLatLon0.09_PT069H.grib2 2026-04-17 02:59 340K
20260417T00Z_MSC_RDPS_WindDir_IsbL-0010_RLatLon0.09_PT069H.grib2 2026-04-17 02:59 376K
20260417T00Z_MSC_RDPS_WindDir_IsbL-0020_RLatLon0.09_PT069H.grib2 2026-04-17 02:59 395K
20260417T00Z_MSC_RDPS_WindDir_IsbL-0030_RLatLon0.09_PT069H.grib2 2026-04-17 02:59 398K
20260417T00Z_MSC_RDPS_WindDir_IsbL-0050_RLatLon0.09_PT069H.grib2 2026-04-17 02:59 410K
20260417T00Z_MSC_RDPS_WindDir_IsbL-0100_RLatLon0.09_PT069H.grib2 2026-04-17 02:59 403K
20260417T00Z_MSC_RDPS_WindDir_IsbL-0150_RLatLon0.09_PT069H.grib2 2026-04-17 02:59 409K
20260417T00Z_MSC_RDPS_WindDir_IsbL-0175_RLatLon0.09_PT069H.grib2 2026-04-17 02:59 432K
20260417T00Z_MSC_RDPS_WindDir_IsbL-0200_RLatLon0.09_PT069H.grib2 2026-04-17 02:59 452K
20260417T00Z_MSC_RDPS_WindDir_IsbL-0225_RLatLon0.09_PT069H.grib2 2026-04-17 02:59 449K
20260417T00Z_MSC_RDPS_WindDir_IsbL-0250_RLatLon0.09_PT069H.grib2 2026-04-17 02:59 443K
20260417T00Z_MSC_RDPS_WindDir_IsbL-0275_RLatLon0.09_PT069H.grib2 2026-04-17 02:59 456K
20260417T00Z_MSC_RDPS_WindDir_IsbL-0300_RLatLon0.09_PT069H.grib2 2026-04-17 02:59 450K
20260417T00Z_MSC_RDPS_WindDir_IsbL-0350_RLatLon0.09_PT069H.grib2 2026-04-17 02:59 464K
20260417T00Z_MSC_RDPS_WindDir_IsbL-0400_RLatLon0.09_PT069H.grib2 2026-04-17 02:59 482K
20260417T00Z_MSC_RDPS_WindDir_IsbL-0450_RLatLon0.09_PT069H.grib2 2026-04-17 02:59 511K
20260417T00Z_MSC_RDPS_WindDir_IsbL-0500_RLatLon0.09_PT069H.grib2 2026-04-17 02:59 529K
20260417T00Z_MSC_RDPS_WindDir_IsbL-0550_RLatLon0.09_PT069H.grib2 2026-04-17 02:59 554K
20260417T00Z_MSC_RDPS_WindDir_IsbL-0600_RLatLon0.09_PT069H.grib2 2026-04-17 02:59 589K
20260417T00Z_MSC_RDPS_WindDir_IsbL-0650_RLatLon0.09_PT069H.grib2 2026-04-17 02:59 629K
20260417T00Z_MSC_RDPS_WindDir_IsbL-0700_RLatLon0.09_PT069H.grib2 2026-04-17 02:59 669K
20260417T00Z_MSC_RDPS_WindDir_IsbL-0750_RLatLon0.09_PT069H.grib2 2026-04-17 02:59 720K
20260417T00Z_MSC_RDPS_WindDir_IsbL-0800_RLatLon0.09_PT069H.grib2 2026-04-17 02:59 780K
20260417T00Z_MSC_RDPS_WindDir_IsbL-0850_RLatLon0.09_PT069H.grib2 2026-04-17 02:59 845K
20260417T00Z_MSC_RDPS_WindDir_IsbL-0875_RLatLon0.09_PT069H.grib2 2026-04-17 02:59 870K
20260417T00Z_MSC_RDPS_WindDir_IsbL-0900_RLatLon0.09_PT069H.grib2 2026-04-17 02:59 890K
20260417T00Z_MSC_RDPS_WindDir_IsbL-0925_RLatLon0.09_PT069H.grib2 2026-04-17 02:59 900K
20260417T00Z_MSC_RDPS_WindDir_IsbL-0950_RLatLon0.09_PT069H.grib2 2026-04-17 02:59 895K
20260417T00Z_MSC_RDPS_WindDir_IsbL-0970_RLatLon0.09_PT069H.grib2 2026-04-17 02:59 901K
20260417T00Z_MSC_RDPS_WindDir_IsbL-0985_RLatLon0.09_PT069H.grib2 2026-04-17 02:59 912K
20260417T00Z_MSC_RDPS_WindDir_IsbL-1000_RLatLon0.09_PT069H.grib2 2026-04-17 02:59 929K
20260417T00Z_MSC_RDPS_WindDir_IsbL-1015_RLatLon0.09_PT069H.grib2 2026-04-17 02:59 949K
20260417T00Z_MSC_RDPS_WindGust-Max_AGL-10m_RLatLon0.09_PT069H.grib2 2026-04-17 02:59 1.0M
20260417T00Z_MSC_RDPS_WindGust-Min_AGL-10m_RLatLon0.09_PT069H.grib2 2026-04-17 02:59 1.0M
20260417T00Z_MSC_RDPS_WindGust_AGL-10m_RLatLon0.09_PT069H.grib2 2026-04-17 02:59 1.0M
20260417T00Z_MSC_RDPS_WindSpeed_AGL-10m_RLatLon0.09_PT069H.grib2 2026-04-17 02:59 849K
20260417T00Z_MSC_RDPS_WindSpeed_AGL-120m_RLatLon0.09_PT069H.grib2 2026-04-17 02:59 541K
20260417T00Z_MSC_RDPS_WindSpeed_AGL-40m_RLatLon0.09_PT069H.grib2 2026-04-17 02:59 547K
20260417T00Z_MSC_RDPS_WindSpeed_AGL-80m_RLatLon0.09_PT069H.grib2 2026-04-17 02:59 542K
20260417T00Z_MSC_RDPS_WindSpeed_IsbL-0001_RLatLon0.09_PT069H.grib2 2026-04-17 02:59 249K
20260417T00Z_MSC_RDPS_WindSpeed_IsbL-0005_RLatLon0.09_PT069H.grib2 2026-04-17 02:59 341K
20260417T00Z_MSC_RDPS_WindSpeed_IsbL-0010_RLatLon0.09_PT069H.grib2 2026-04-17 02:59 313K
20260417T00Z_MSC_RDPS_WindSpeed_IsbL-0020_RLatLon0.09_PT069H.grib2 2026-04-17 02:59 333K
20260417T00Z_MSC_RDPS_WindSpeed_IsbL-0030_RLatLon0.09_PT069H.grib2 2026-04-17 02:59 335K
20260417T00Z_MSC_RDPS_WindSpeed_IsbL-0050_RLatLon0.09_PT069H.grib2 2026-04-17 02:59 371K
20260417T00Z_MSC_RDPS_WindSpeed_IsbL-0100_RLatLon0.09_PT069H.grib2 2026-04-17 02:59 459K
20260417T00Z_MSC_RDPS_WindSpeed_IsbL-0150_RLatLon0.09_PT069H.grib2 2026-04-17 02:59 378K
20260417T00Z_MSC_RDPS_WindSpeed_IsbL-0175_RLatLon0.09_PT069H.grib2 2026-04-17 02:59 407K
20260417T00Z_MSC_RDPS_WindSpeed_IsbL-0200_RLatLon0.09_PT069H.grib2 2026-04-17 02:59 426K
20260417T00Z_MSC_RDPS_WindSpeed_IsbL-0225_RLatLon0.09_PT069H.grib2 2026-04-17 02:59 450K
20260417T00Z_MSC_RDPS_WindSpeed_IsbL-0250_RLatLon0.09_PT069H.grib2 2026-04-17 02:59 451K
20260417T00Z_MSC_RDPS_WindSpeed_IsbL-0275_RLatLon0.09_PT069H.grib2 2026-04-17 02:59 466K
20260417T00Z_MSC_RDPS_WindSpeed_IsbL-0300_RLatLon0.09_PT069H.grib2 2026-04-17 02:59 460K
20260417T00Z_MSC_RDPS_WindSpeed_IsbL-0350_RLatLon0.09_PT069H.grib2 2026-04-17 02:59 469K
20260417T00Z_MSC_RDPS_WindSpeed_IsbL-0400_RLatLon0.09_PT069H.grib2 2026-04-17 02:59 474K
20260417T00Z_MSC_RDPS_WindSpeed_IsbL-0450_RLatLon0.09_PT069H.grib2 2026-04-17 02:59 480K
20260417T00Z_MSC_RDPS_WindSpeed_IsbL-0500_RLatLon0.09_PT069H.grib2 2026-04-17 02:59 464K
20260417T00Z_MSC_RDPS_WindSpeed_IsbL-0550_RLatLon0.09_PT069H.grib2 2026-04-17 02:59 466K
20260417T00Z_MSC_RDPS_WindSpeed_IsbL-0600_RLatLon0.09_PT069H.grib2 2026-04-17 02:59 593K
20260417T00Z_MSC_RDPS_WindSpeed_IsbL-0650_RLatLon0.09_PT069H.grib2 2026-04-17 02:59 615K
20260417T00Z_MSC_RDPS_WindSpeed_IsbL-0700_RLatLon0.09_PT069H.grib2 2026-04-17 02:59 685K
20260417T00Z_MSC_RDPS_WindSpeed_IsbL-0750_RLatLon0.09_PT069H.grib2 2026-04-17 02:59 720K
20260417T00Z_MSC_RDPS_WindSpeed_IsbL-0800_RLatLon0.09_PT069H.grib2 2026-04-17 02:59 769K
20260417T00Z_MSC_RDPS_WindSpeed_IsbL-0850_RLatLon0.09_PT069H.grib2 2026-04-17 02:59 822K
20260417T00Z_MSC_RDPS_WindSpeed_IsbL-0875_RLatLon0.09_PT069H.grib2 2026-04-17 02:59 842K
20260417T00Z_MSC_RDPS_WindSpeed_IsbL-0900_RLatLon0.09_PT069H.grib2 2026-04-17 02:59 859K
20260417T00Z_MSC_RDPS_WindSpeed_IsbL-0925_RLatLon0.09_PT069H.grib2 2026-04-17 02:59 870K
20260417T00Z_MSC_RDPS_WindSpeed_IsbL-0950_RLatLon0.09_PT069H.grib2 2026-04-17 02:59 861K
20260417T00Z_MSC_RDPS_WindSpeed_IsbL-0970_RLatLon0.09_PT069H.grib2 2026-04-17 02:59 860K
20260417T00Z_MSC_RDPS_WindSpeed_IsbL-0985_RLatLon0.09_PT069H.grib2 2026-04-17 02:59 859K
20260417T00Z_MSC_RDPS_WindSpeed_IsbL-1000_RLatLon0.09_PT069H.grib2 2026-04-17 02:59 858K
20260417T00Z_MSC_RDPS_WindSpeed_IsbL-1015_RLatLon0.09_PT069H.grib2 2026-04-17 02:59 852K
20260417T00Z_MSC_RDPS_WindU_AGL-10m_RLatLon0.09_PT069H.grib2 2026-04-17 02:59 441K
20260417T00Z_MSC_RDPS_WindU_AGL-120m_RLatLon0.09_PT069H.grib2 2026-04-17 02:59 423K
20260417T00Z_MSC_RDPS_WindU_AGL-40m_RLatLon0.09_PT069H.grib2 2026-04-17 02:59 544K
20260417T00Z_MSC_RDPS_WindU_AGL-80m_RLatLon0.09_PT069H.grib2 2026-04-17 02:59 541K
20260417T00Z_MSC_RDPS_WindU_IsbL-0001_RLatLon0.09_PT069H.grib2 2026-04-17 02:59 291K
20260417T00Z_MSC_RDPS_WindU_IsbL-0005_RLatLon0.09_PT069H.grib2 2026-04-17 02:59 334K
20260417T00Z_MSC_RDPS_WindU_IsbL-0010_RLatLon0.09_PT069H.grib2 2026-04-17 02:59 316K
20260417T00Z_MSC_RDPS_WindU_IsbL-0020_RLatLon0.09_PT069H.grib2 2026-04-17 02:59 332K
20260417T00Z_MSC_RDPS_WindU_IsbL-0030_RLatLon0.09_PT069H.grib2 2026-04-17 02:59 333K
20260417T00Z_MSC_RDPS_WindU_IsbL-0050_RLatLon0.09_PT069H.grib2 2026-04-17 02:59 395K
20260417T00Z_MSC_RDPS_WindU_IsbL-0100_RLatLon0.09_PT069H.grib2 2026-04-17 02:59 338K
20260417T00Z_MSC_RDPS_WindU_IsbL-0150_RLatLon0.09_PT069H.grib2 2026-04-17 02:59 370K
20260417T00Z_MSC_RDPS_WindU_IsbL-0175_RLatLon0.09_PT069H.grib2 2026-04-17 02:59 420K
20260417T00Z_MSC_RDPS_WindU_IsbL-0200_RLatLon0.09_PT069H.grib2 2026-04-17 02:59 437K
20260417T00Z_MSC_RDPS_WindU_IsbL-0225_RLatLon0.09_PT069H.grib2 2026-04-17 02:59 442K
20260417T00Z_MSC_RDPS_WindU_IsbL-0250_RLatLon0.09_PT069H.grib2 2026-04-17 02:59 342K
20260417T00Z_MSC_RDPS_WindU_IsbL-0275_RLatLon0.09_PT069H.grib2 2026-04-17 02:59 354K
20260417T00Z_MSC_RDPS_WindU_IsbL-0300_RLatLon0.09_PT069H.grib2 2026-04-17 02:59 348K
20260417T00Z_MSC_RDPS_WindU_IsbL-0350_RLatLon0.09_PT069H.grib2 2026-04-17 02:59 354K
20260417T00Z_MSC_RDPS_WindU_IsbL-0400_RLatLon0.09_PT069H.grib2 2026-04-17 02:59 358K
20260417T00Z_MSC_RDPS_WindU_IsbL-0450_RLatLon0.09_PT069H.grib2 2026-04-17 02:59 364K
20260417T00Z_MSC_RDPS_WindU_IsbL-0500_RLatLon0.09_PT069H.grib2 2026-04-17 02:59 469K
20260417T00Z_MSC_RDPS_WindU_IsbL-0550_RLatLon0.09_PT069H.grib2 2026-04-17 02:59 471K
20260417T00Z_MSC_RDPS_WindU_IsbL-0600_RLatLon0.09_PT069H.grib2 2026-04-17 02:59 481K
20260417T00Z_MSC_RDPS_WindU_IsbL-0650_RLatLon0.09_PT069H.grib2 2026-04-17 02:59 501K
20260417T00Z_MSC_RDPS_WindU_IsbL-0700_RLatLon0.09_PT069H.grib2 2026-04-17 02:59 524K
20260417T00Z_MSC_RDPS_WindU_IsbL-0750_RLatLon0.09_PT069H.grib2 2026-04-17 02:59 540K
20260417T00Z_MSC_RDPS_WindU_IsbL-0800_RLatLon0.09_PT069H.grib2 2026-04-17 02:59 583K
20260417T00Z_MSC_RDPS_WindU_IsbL-0850_RLatLon0.09_PT069H.grib2 2026-04-17 02:59 628K
20260417T00Z_MSC_RDPS_WindU_IsbL-0875_RLatLon0.09_PT069H.grib2 2026-04-17 02:59 646K
20260417T00Z_MSC_RDPS_WindU_IsbL-0900_RLatLon0.09_PT069H.grib2 2026-04-17 02:59 659K
20260417T00Z_MSC_RDPS_WindU_IsbL-0925_RLatLon0.09_PT069H.grib2 2026-04-17 02:59 666K
20260417T00Z_MSC_RDPS_WindU_IsbL-0950_RLatLon0.09_PT069H.grib2 2026-04-17 02:59 659K
20260417T00Z_MSC_RDPS_WindU_IsbL-0970_RLatLon0.09_PT069H.grib2 2026-04-17 02:59 657K
20260417T00Z_MSC_RDPS_WindU_IsbL-0985_RLatLon0.09_PT069H.grib2 2026-04-17 02:59 657K
20260417T00Z_MSC_RDPS_WindU_IsbL-1000_RLatLon0.09_PT069H.grib2 2026-04-17 02:59 796K
20260417T00Z_MSC_RDPS_WindU_IsbL-1015_RLatLon0.09_PT069H.grib2 2026-04-17 02:59 792K
20260417T00Z_MSC_RDPS_WindV_AGL-10m_RLatLon0.09_PT069H.grib2 2026-04-17 02:59 437K
20260417T00Z_MSC_RDPS_WindV_AGL-120m_RLatLon0.09_PT069H.grib2 2026-04-17 02:59 535K
20260417T00Z_MSC_RDPS_WindV_AGL-40m_RLatLon0.09_PT069H.grib2 2026-04-17 02:59 538K
20260417T00Z_MSC_RDPS_WindV_AGL-80m_RLatLon0.09_PT069H.grib2 2026-04-17 02:59 535K
20260417T00Z_MSC_RDPS_WindV_IsbL-0001_RLatLon0.09_PT069H.grib2 2026-04-17 02:59 291K
20260417T00Z_MSC_RDPS_WindV_IsbL-0005_RLatLon0.09_PT069H.grib2 2026-04-17 02:59 334K
20260417T00Z_MSC_RDPS_WindV_IsbL-0010_RLatLon0.09_PT069H.grib2 2026-04-17 02:59 348K
20260417T00Z_MSC_RDPS_WindV_IsbL-0020_RLatLon0.09_PT069H.grib2 2026-04-17 02:59 365K
20260417T00Z_MSC_RDPS_WindV_IsbL-0030_RLatLon0.09_PT069H.grib2 2026-04-17 02:59 328K
20260417T00Z_MSC_RDPS_WindV_IsbL-0050_RLatLon0.09_PT069H.grib2 2026-04-17 02:59 363K
20260417T00Z_MSC_RDPS_WindV_IsbL-0100_RLatLon0.09_PT069H.grib2 2026-04-17 02:59 337K
20260417T00Z_MSC_RDPS_WindV_IsbL-0150_RLatLon0.09_PT069H.grib2 2026-04-17 02:59 393K
20260417T00Z_MSC_RDPS_WindV_IsbL-0175_RLatLon0.09_PT069H.grib2 2026-04-17 02:59 420K
20260417T00Z_MSC_RDPS_WindV_IsbL-0200_RLatLon0.09_PT069H.grib2 2026-04-17 02:59 340K
20260417T00Z_MSC_RDPS_WindV_IsbL-0225_RLatLon0.09_PT069H.grib2 2026-04-17 02:59 343K
20260417T00Z_MSC_RDPS_WindV_IsbL-0250_RLatLon0.09_PT069H.grib2 2026-04-17 02:59 369K
20260417T00Z_MSC_RDPS_WindV_IsbL-0275_RLatLon0.09_PT069H.grib2 2026-04-17 02:59 379K
20260417T00Z_MSC_RDPS_WindV_IsbL-0300_RLatLon0.09_PT069H.grib2 2026-04-17 02:59 374K
20260417T00Z_MSC_RDPS_WindV_IsbL-0350_RLatLon0.09_PT069H.grib2 2026-04-17 02:59 380K
20260417T00Z_MSC_RDPS_WindV_IsbL-0400_RLatLon0.09_PT069H.grib2 2026-04-17 02:59 358K
20260417T00Z_MSC_RDPS_WindV_IsbL-0450_RLatLon0.09_PT069H.grib2 2026-04-17 02:59 362K
20260417T00Z_MSC_RDPS_WindV_IsbL-0500_RLatLon0.09_PT069H.grib2 2026-04-17 02:59 467K
20260417T00Z_MSC_RDPS_WindV_IsbL-0550_RLatLon0.09_PT069H.grib2 2026-04-17 02:59 470K
20260417T00Z_MSC_RDPS_WindV_IsbL-0600_RLatLon0.09_PT069H.grib2 2026-04-17 02:59 479K
20260417T00Z_MSC_RDPS_WindV_IsbL-0650_RLatLon0.09_PT069H.grib2 2026-04-17 02:59 498K
20260417T00Z_MSC_RDPS_WindV_IsbL-0700_RLatLon0.09_PT069H.grib2 2026-04-17 02:59 521K
20260417T00Z_MSC_RDPS_WindV_IsbL-0750_RLatLon0.09_PT069H.grib2 2026-04-17 02:59 536K
20260417T00Z_MSC_RDPS_WindV_IsbL-0800_RLatLon0.09_PT069H.grib2 2026-04-17 02:59 578K
20260417T00Z_MSC_RDPS_WindV_IsbL-0850_RLatLon0.09_PT069H.grib2 2026-04-17 02:59 623K
20260417T00Z_MSC_RDPS_WindV_IsbL-0875_RLatLon0.09_PT069H.grib2 2026-04-17 02:59 641K
20260417T00Z_MSC_RDPS_WindV_IsbL-0900_RLatLon0.09_PT069H.grib2 2026-04-17 02:59 655K
20260417T00Z_MSC_RDPS_WindV_IsbL-0925_RLatLon0.09_PT069H.grib2 2026-04-17 02:59 662K
20260417T00Z_MSC_RDPS_WindV_IsbL-0950_RLatLon0.09_PT069H.grib2 2026-04-17 02:59 654K
20260417T00Z_MSC_RDPS_WindV_IsbL-0970_RLatLon0.09_PT069H.grib2 2026-04-17 02:59 793K
20260417T00Z_MSC_RDPS_WindV_IsbL-0985_RLatLon0.09_PT069H.grib2 2026-04-17 02:59 792K
20260417T00Z_MSC_RDPS_WindV_IsbL-1000_RLatLon0.09_PT069H.grib2 2026-04-17 02:59 790K
20260417T00Z_MSC_RDPS_WindV_IsbL-1015_RLatLon0.09_PT069H.grib2 2026-04-17 02:59 833K